User: anonymous   Login
Location: Buckeye Ditch
(40.9104°N, 122.9517°W)
Time: 16:33:54
(UTC+00:00)
Language:

ATLAS 2AS CENTAUR R/B - Orbit

View from above orbital plane
View from above orbital plane
View from above satellite
View from above satellite

Ground track
Ground track

The orbit data is extracted from the following two-line orbital elements,

1 28096U 03054B   24172.97987192 -.00000039  00000-0  84471-4 0  9996
2 28096  63.6797  68.4870 0117624 169.1018 191.2599 13.40975612  5037
Epoch (UTC): 20 June 2024 23:31:00
Eccentricity: 0.0117624
inclination: 63.6797°
perigee height: 1017 km
apogee height: 1193 km
right ascension of ascending node: 68.4870°
argument of perigee: 169.1018°
revolutions per day: 13.40975612
mean anomaly at epoch: 191.2599°
orbit number at epoch: 503

The dashed part of the orbit path shows where the satellite is in the earth's shadow,  

DLR